EW6086 Weather Reports


time (UTC)temp
F
wind
direction
speed
knots
gust
knots
rain 1hr
in
rain 24hr
in
rain mn
in
humidity
%
barometer
mb
20220124112037 52 36 0.0 0.0 0.00 0.00 0.00 71 1015.5
20220124111532 52 36 0.0 0.0 0.00 0.00 0.00 71 1015.5
20220124111027 52 36 0.0 0.0 0.00 0.00 0.00 71 1015.5
20220124110519 52 36 0.0 0.0 0.00 0.00 0.00 70 1015.5
20220124110013 52 36 0.0 2.6 0.00 0.00 0.00 70 1015.7
20220124105508 52 36 0.0 2.6 0.00 0.00 0.00 70 1015.6
20220124105002 52 33 0.0 0.0 0.00 0.00 0.00 70 1015.7
20220124104456 52 33 0.0 0.9 0.00 0.00 0.00 70 1015.8
20220124103951 52 33 0.0 2.6 0.00 0.00 0.00 70 1015.8
20220124103444 52 32 0.0 2.6 0.00 0.00 0.00 70 1015.9
20220124102937 52 35 0.0 0.9 0.00 0.00 0.00 70 1016.1
20220124102431 52 35 0.0 0.9 0.00 0.00 0.00 71 1015.8
20220124101925 52 35 0.0 0.9 0.00 0.00 0.00 71 1015.9
20220124101420 52 35 0.0 0.9 0.00 0.00 0.00 71 1015.9
20220124100914 52 34 0.0 0.0 0.00 0.00 0.00 70 1016.1
20220124100408 52 35 0.0 0.0 0.00 0.00 0.00 70 1016.3
20220124095901 52 35 0.0 0.0 0.00 0.00 0.00 70 1016.2
20220124095356 52 35 0.0 0.0 0.00 0.00 0.00 70 1016.3
20220124094850 52 35 0.0 0.0 0.00 0.00 0.00 71 1016.4
20220124094345 52 35 0.0 0.9 0.00 0.00 0.00 71 1016.4
20220124093838 52 35 0.0 0.9 0.00 0.00 0.00 70 1016.5
20220124093332 53 35 0.0 0.0 0.00 0.00 0.00 69 1016.4
20220124092826 53 35 0.0 0.0 0.00 0.00 0.00 68 1016.5
20220124092319 53 35 0.0 0.0 0.00 0.00 0.00 68 1016.5
20220124091813 53 35 0.0 0.0 0.00 0.00 0.00 68 1016.4
20220124091309 53 35 0.0 0.0 0.00 0.00 0.00 68 1016.6
20220124090802 53 35 0.0 0.0 0.00 0.00 0.00 68 1016.7
20220124090306 53 35 0.0 0.0 0.00 0.00 0.00 68 1016.8
20220124085759 53 35 0.0 0.0 0.00 0.00 0.00 68 1016.9
20220124085254 52 35 0.0 0.0 0.00 0.00 0.00 68 1017.1
20220124084747 52 35 0.0 0.0 0.00 0.00 0.00 69 1016.9
20220124084240 52 35 0.0 0.0 0.00 0.00 0.00 70 1016.9
20220124083740 52 35 0.0 0.0 0.00 0.00 0.00 70 1016.8
20220124083237 52 35 0.0 0.0 0.00 0.00 0.00 70 1017.0
20220124082735 52 35 0.0 0.0 0.00 0.00 0.00 71 1017.2
20220124082232 52 35 0.0 0.0 0.00 0.00 0.00 72 1017.3
20220124081734 52 35 0.0 0.0 0.00 0.00 0.00 71 1017.4
20220124081228 52 35 0.0 0.0 0.00 0.00 0.00 71 1017.2
20220124080727 52 35 0.0 0.0 0.00 0.00 0.00 72 1017.2
20220124080228 52 35 0.0 0.0 0.00 0.00 0.00 73 1017.2
20220124075726 52 35 0.0 0.0 0.00 0.00 0.00 73 1017.3
20220124075228 52 35 0.0 0.0 0.00 0.00 0.00 73 1017.4
20220124074729 52 35 0.0 0.0 0.00 0.00 0.00 72 1017.5
20220124074226 52 35 0.0 0.0 0.00 0.00 0.00 72 1017.4
20220124073728 52 35 0.0 0.0 0.00 0.00 0.00 72 1017.4
20220124073220 52 35 0.0 0.0 0.00 0.00 0.00 72 1017.5
20220124072722 52 35 0.0 0.0 0.00 0.00 0.00 72 1017.6
20220124072224 52 35 0.0 0.0 0.00 0.00 0.00 71 1017.4
20220124071725 52 35 0.0 0.0 0.00 0.00 0.00 71 1017.6
20220124071220 52 35 0.0 0.0 0.00 0.00 0.00 72 1017.6
20220124070720 52 35 0.0 0.0 0.00 0.00 0.00 72 1017.6
20220124070220 52 35 0.0 0.0 0.00 0.00 0.00 72 1017.5
20220124065721 52 35 0.0 0.0 0.00 0.00 0.00 71 1017.7
20220124065220 52 35 0.0 0.0 0.00 0.00 0.00 71 1017.8
20220124064724 52 35 0.0 0.0 0.00 0.00 0.00 71 1017.9
20220124064220 52 35 0.0 0.0 0.00 0.00 0.00 70 1018.1
20220124063721 52 35 0.0 0.0 0.00 0.00 0.00 70 1018.3
20220124063220 52 35 0.0 0.0 0.00 0.00 0.00 70 1018.4
20220124062721 52 35 0.0 0.0 0.00 0.00 0.00 69 1018.6
20220124062220 52 35 0.0 0.0 0.00 0.00 0.00 69 1018.7
20220124061720 52 35 0.0 0.0 0.00 0.00 0.00 69 1018.8
20220124061221 52 35 0.0 0.0 0.00 0.00 0.00 69 1018.9
20220124060719 52 35 0.0 0.0 0.00 0.00 0.00 69 1019.0
20220124060218 52 35 0.0 0.0 0.00 0.00 0.00 70 1019.0
20220124055715 52 35 0.0 0.0 0.00 0.00 0.00 69 1019.0
20220124055215 52 35 0.0 0.0 0.00 0.00 0.00 69 1019.0
20220124054715 52 35 0.0 0.0 0.00 0.00 0.00 67 1019.1
20220124054214 52 35 0.0 0.0 0.00 0.00 0.00 65 1019.3
20220124053715 52 35 0.0 0.0 0.00 0.00 0.00 65 1019.4
20220124053213 52 35 0.0 0.0 0.00 0.00 0.00 65 1019.5
20220124052713 52 35 0.0 0.0 0.00 0.00 0.00 65 1019.6
20220124052214 52 35 0.0 0.0 0.00 0.00 0.00 66 1019.7
20220124051713 52 35 0.0 0.0 0.00 0.00 0.00 66 1019.7
20220124051211 52 35 0.0 0.0 0.00 0.00 0.00 67 1019.8
20220124050708 52 35 0.0 0.0 0.00 0.00 0.00 66 1019.7
20220124050209 52 35 0.0 0.0 0.00 0.00 0.00 67 1019.8
20220124045708 52 35 0.0 0.0 0.00 0.00 0.00 66 1019.8
20220124045206 52 35 0.0 0.0 0.00 0.00 0.00 66 1019.8
20220124044702 52 35 0.0 0.0 0.00 0.00 0.00 66 1019.8
20220124044206 52 35 0.0 0.0 0.00 0.00 0.00 67 1019.9
20220124043703 52 35 0.0 0.0 0.00 0.00 0.00 67 1020.0
20220124043204 52 35 0.0 0.0 0.00 0.00 0.00 69 1020.0
20220124042700 52 35 0.0 0.0 0.00 0.00 0.00 71 1019.9
20220124042152 52 35 0.0 0.0 0.00 0.00 0.00 70 1019.8
20220124041646 52 35 0.0 0.0 0.00 0.00 0.00 67 1020.0
20220124041139 52 35 0.0 0.0 0.00 0.00 0.00 67 1020.1
20220124040634 52 35 0.0 0.0 0.00 0.00 0.00 68 1020.1
20220124040129 52 35 0.0 0.0 0.00 0.00 0.00 70 1020.1
20220124035623 52 35 0.0 0.0 0.00 0.00 0.00 71 1020.2
20220124035116 52 35 0.0 0.0 0.00 0.00 0.00 71 1020.2
20220124034611 52 35 0.0 0.0 0.00 0.00 0.00 70 1020.2
20220124034104 52 35 0.0 0.0 0.00 0.00 0.00 71 1020.1
20220124033557 52 35 0.0 0.0 0.00 0.00 0.00 71 1020.1
20220124033052 52 35 0.0 0.0 0.00 0.00 0.00 72 1020.2
20220124032546 52 35 0.0 0.0 0.00 0.00 0.00 73 1020.1
20220124032039 52 35 0.0 0.0 0.00 0.00 0.00 73 1020.0
20220124031536 52 35 0.0 0.0 0.00 0.00 0.00 72 1020.0
20220124031028 52 35 0.0 0.0 0.00 0.00 0.00 71 1020.1
20220124030534 52 35 0.0 0.0 0.00 0.00 0.00 67 1020.3
20220124030015 52 35 0.0 0.0 0.00 0.00 0.00 68 1020.3
20220124025509 52 35 0.0 0.0 0.00 0.00 0.00 68 1020.1
20220124025005 52 35 0.0 0.0 0.00 0.00 0.00 68 1020.0
20220124024457 52 35 0.0 0.0 0.00 0.00 0.00 68 1020.1
20220124023953 53 35 0.0 0.0 0.00 0.00 0.00 69 1019.9
20220124023446 53 35 0.0 0.0 0.00 0.00 0.00 68 1019.8
20220124022940 53 35 0.0 0.0 0.00 0.00 0.00 67 1019.9
20220124022434 53 35 0.0 0.0 0.00 0.00 0.00 66 1020.0
20220124021928 53 35 0.0 0.0 0.00 0.00 0.00 65 1019.9
20220124021422 53 35 0.0 0.0 0.00 0.00 0.00 64 1020.1
20220124020915 53 35 0.0 0.0 0.00 0.00 0.00 64 1020.1
20220124020412 53 35 0.0 0.0 0.00 0.00 0.00 65 1020.0
20220124015904 53 35 0.0 0.0 0.00 0.00 0.00 65 1020.0
20220124015358 53 35 0.0 0.0 0.00 0.00 0.00 64 1020.1
20220124014852 53 35 0.0 0.0 0.00 0.00 0.00 62 1019.9
20220124014347 53 35 0.0 0.0 0.00 0.00 0.00 62 1019.9
20220124013840 53 35 0.0 0.0 0.00 0.00 0.00 60 1020.0
20220124013334 53 35 0.0 0.0 0.00 0.00 0.00 60 1020.0
20220124012828 53 35 0.0 0.0 0.00 0.00 0.00 60 1020.1
20220124012322 53 35 0.0 0.0 0.00 0.00 0.00 60 1020.1
20220124011815 54 35 0.0 0.0 0.00 0.00 0.00 60 1020.0
20220124011311 54 35 0.0 0.0 0.00 0.00 0.00 59 1020.0
20220124010810 54 35 0.0 0.0 0.00 0.00 0.00 58 1020.0
20220124010316 54 35 0.0 0.0 0.00 0.00 0.00 58 1020.0
20220124005811 54 35 0.0 0.0 0.00 0.00 0.00 57 1020.0
20220124005310 54 35 0.0 0.0 0.00 0.00 0.00 56 1020.0
20220124004812 54 35 0.0 0.0 0.00 0.00 0.00 56 1019.9
20220124004311 54 35 0.0 0.0 0.00 0.00 0.00 56 1020.0
20220124003809 54 35 0.0 0.0 0.00 0.00 0.00 57 1020.2
20220124003308 54 35 0.0 0.0 0.00 0.00 0.00 57 1020.2
20220124002807 54 35 0.0 0.0 0.00 0.00 0.00 56 1020.3
20220124002306 55 35 0.0 0.0 0.00 0.00 0.00 57 1020.2
20220124001806 55 35 0.0 0.0 0.00 0.00 0.00 56 1020.4
20220124001306 55 35 0.0 0.0 0.00 0.00 0.00 55 1020.5
20220124000808 55 35 0.0 0.0 0.00 0.00 0.00 53 1020.4
20220124000305 55 35 0.0 0.0 0.00 0.00 0.00 53 1020.4
20220123235803 55 35 0.0 0.0 0.00 0.00 0.00 52 1020.3
20220123235306 55 35 0.0 0.0 0.00 0.00 0.00 52 1020.2
20220123234803 55 35 0.0 0.0 0.00 0.00 0.00 51 1020.3
20220123234303 55 35 0.0 0.0 0.00 0.00 0.00 51 1020.4
20220123233802 55 35 0.0 0.0 0.00 0.00 0.00 51 1020.3
20220123233305 55 35 0.0 0.0 0.00 0.00 0.00 51 1020.4
20220123232802 55 35 0.0 0.0 0.00 0.00 0.00 51 1020.6
20220123232306 55 35 0.0 0.0 0.00 0.00 0.00 52 1020.6
20220123231758 55 35 0.0 0.0 0.00 0.00 0.00 51 1020.6
20220123231300 55 35 0.0 0.0 0.00 0.00 0.00 51 1020.8
20220123230758 55 35 0.0 0.0 0.00 0.00 0.00 52 1020.8
20220123230259 55 35 0.0 0.0 0.00 0.00 0.00 51 1021.0
20220123225759 56 35 0.0 0.0 0.00 0.00 0.00 51 1021.0
20220123225258 56 35 0.0 0.0 0.00 0.00 0.00 50 1020.8
20220123224758 56 35 0.0 0.0 0.00 0.00 0.00 49 1020.7
20220123224258 56 35 0.0 0.0 0.00 0.00 0.00 50 1020.8
20220123223759 56 35 0.0 0.0 0.00 0.00 0.00 49 1020.8
20220123223259 56 35 0.0 0.0 0.00 0.00 0.00 50 1020.8
20220123222800 56 35 0.0 0.0 0.00 0.00 0.00 52 1021.0
20220123222258 56 35 0.0 0.0 0.00 0.00 0.00 49 1021.0
20220123221756 56 35 0.0 0.0 0.00 0.00 0.00 49 1020.8
20220123221256 56 35 0.0 0.0 0.00 0.00 0.00 51 1020.8
20220123220755 56 35 0.0 0.0 0.00 0.00 0.00 49 1021.1
20220123220255 56 35 0.0 0.0 0.00 0.00 0.00 49 1021.3
20220123215754 56 35 0.0 0.0 0.00 0.00 0.00 49 1021.2
20220123215250 56 35 0.0 0.0 0.00 0.00 0.00 50 1021.1
20220123214749 56 35 0.0 0.0 0.00 0.00 0.00 49 1021.2
20220123214246 56 35 0.0 0.0 0.00 0.00 0.00 49 1021.3
20220123213743 56 35 0.0 0.0 0.00 0.00 0.00 49 1021.3
20220123213242 56 35 0.0 0.0 0.00 0.00 0.00 49 1021.3
20220123212741 56 35 0.0 0.0 0.00 0.00 0.00 49 1021.5
20220123212238 56 35 0.0 0.0 0.00 0.00 0.00 50 1021.3
20220123211737 55 35 0.0 0.0 0.00 0.00 0.00 49 1021.4
20220123211238 55 35 0.0 0.0 0.00 0.00 0.00 50 1021.6
20220123210737 55 35 0.0 0.0 0.00 0.00 0.00 49 1021.6
20220123210234 55 35 0.0 0.0 0.00 0.00 0.00 50 1021.7
20220123205732 55 35 0.0 0.0 0.00 0.00 0.00 49 1021.9
20220123205234 54 35 0.0 0.0 0.00 0.00 0.00 50 1022.1
20220123204727 54 35 0.0 0.0 0.00 0.00 0.00 51 1022.2
20220123204220 54 35 0.0 0.0 0.00 0.00 0.00 51 1022.2
20220123203715 54 35 0.0 0.0 0.00 0.00 0.00 53 1022.4
20220123203209 55 35 0.0 0.0 0.00 0.00 0.00 51 1022.3
20220123202707 55 35 0.0 0.0 0.00 0.00 0.00 48 1022.4
20220123202156 55 35 0.0 0.0 0.00 0.00 0.00 49 1022.4
20220123201652 55 35 0.0 0.0 0.00 0.00 0.00 49 1022.4
20220123201145 54 35 0.0 0.0 0.00 0.00 0.00 48 1022.5
20220123200639 55 35 0.0 0.0 0.00 0.00 0.00 49 1022.5
20220123200133 55 35 0.0 0.0 0.00 0.00 0.00 48 1022.6
20220123195627 55 35 0.0 0.0 0.00 0.00 0.00 49 1022.8
20220123195122 54 35 0.0 0.0 0.00 0.00 0.00 50 1022.8
20220123194614 54 35 0.0 0.0 0.00 0.00 0.00 49 1022.9
20220123194115 54 35 0.0 0.0 0.00 0.00 0.00 49 1022.9
20220123193603 54 35 0.0 0.0 0.00 0.00 0.00 50 1022.9
20220123193057 54 35 0.0 0.0 0.00 0.00 0.00 49 1023.2
20220123192551 54 35 0.0 0.0 0.00 0.00 0.00 49 1023.4
20220123192046 54 35 0.0 0.9 0.00 0.00 0.00 48 1023.5
20220123191538 54 35 0.0 0.9 0.00 0.00 0.00 48 1023.6
20220123191033 54 36 0.0 0.0 0.00 0.00 0.00 49 1023.9
20220123190527 54 36 0.0 0.0 0.00 0.00 0.00 48 1024.0
20220123190021 54 36 0.0 0.0 0.00 0.00 0.00 48 1023.9
20220123185514 54 36 0.0 0.9 0.00 0.00 0.00 48 1024.0
20220123185009 54 36 0.0 0.9 0.00 0.00 0.00 47 1024.1
20220123184503 54 36 0.0 0.0 0.00 0.00 0.00 46 1024.2
20220123183957 54 36 0.0 0.0 0.00 0.00 0.00 46 1024.4
20220123183451 53 36 0.0 0.9 0.00 0.00 0.00 45 1024.5
20220123182945 53 36 0.0 0.9 0.00 0.00 0.00 45 1024.6
20220123182438 53 36 0.0 0.0 0.00 0.00 0.00 46 1024.8
20220123181934 53 36 0.0 0.0 0.00 0.00 0.00 46 1025.0
20220123181428 53 36 0.0 0.0 0.00 0.00 0.00 46 1025.1
20220123180921 53 36 0.0 0.0 0.00 0.00 0.00 46 1025.2
20220123180414 53 36 0.0 3.5 0.00 0.00 0.00 46 1025.3
20220123175912 53 36 0.0 3.5 0.00 0.00 0.00 46 1025.3
20220123175402 52 59 0.0 0.9 0.00 0.00 0.00 46 1025.3
20220123174857 52 59 0.0 0.9 0.00 0.00 0.00 47 1025.5
20220123174351 51 59 0.0 0.9 0.00 0.00 0.00 46 1025.6
20220123173845 51 59 0.0 1.7 0.00 0.00 0.00 46 1025.8
20220123173340 51 61 0.0 1.7 0.00 0.00 0.00 46 1025.8
20220123172832 51 66 0.0 0.0 0.00 0.00 0.00 46 1025.8
20220123172327 51 66 0.0 0.0 0.00 0.00 0.00 46 1025.8
20220123171820 51 66 0.0 0.0 0.00 0.00 0.00 46 1025.9
20220123171317 50 66 0.0 0.0 0.00 0.00 0.00 48 1026.0
20220123170810 50 66 0.0 0.0 0.00 0.00 0.00 47 1026.2
20220123170311 50 66 0.0 0.0 0.00 0.00 0.00 47 1026.3
20220123165523 50 66 0.0 0.0 0.00 0.00 0.00 48 1026.3
20220123165020 50 66 0.0 0.0 0.00 0.00 0.00 49 1026.3
20220123164520 49 66 0.0 0.0 0.00 0.00 0.00 48 1026.4
20220123164018 50 66 0.0 0.0 0.00 0.00 0.00 47 1026.4
20220123163517 49 66 0.0 0.0 0.00 0.00 0.00 48 1026.5
20220123163019 49 66 0.0 0.0 0.00 0.00 0.00 49 1026.7
20220123162517 49 66 0.0 0.0 0.00 0.00 0.00 49 1026.7
20220123162018 49 66 0.0 0.0 0.00 0.00 0.00 48 1026.7
20220123161513 49 66 0.0 0.0 0.00 0.00 0.00 49 1026.6
20220123161015 49 66 0.0 0.0 0.00 0.00 0.00 50 1026.6
20220123160514 49 66 0.0 0.9 0.00 0.00 0.00 49 1026.5
20220123160013 49 66 0.0 0.9 0.00 0.00 0.00 49 1026.5
20220123155513 49 66 0.0 0.9 0.00 0.00 0.00 50 1026.5
20220123155013 49 66 0.0 0.9 0.00 0.00 0.00 49 1026.5
20220123154513 49 67 0.0 0.9 0.00 0.00 0.00 50 1026.3
20220123154012 49 67 0.0 0.9 0.00 0.00 0.00 50 1026.2
20220123153514 49 66 0.0 1.7 0.00 0.00 0.00 51 1026.1
20220123153014 49 66 0.0 2.6 0.00 0.00 0.00 50 1026.1
20220123152513 48 65 0.0 2.6 0.00 0.00 0.00 51 1025.9
20220123152013 48 66 0.0 1.7 0.00 0.00 0.00 51 1025.8
20220123151513 48 66 0.0 2.6 0.00 0.00 0.00 52 1025.8
20220123151013 48 68 0.9 2.6 0.00 0.00 0.00 53 1025.8
20220123150513 48 59 0.0 2.6 0.00 0.00 0.00 54 1025.7
20220123150015 48 57 0.9 3.5 0.00 0.00 0.00 54 1025.8
20220123145512 48 68 1.7 3.5 0.00 0.00 0.00 54 1025.9
20220123145012 48 62 0.9 3.5 0.00 0.00 0.00 53 1025.9
20220123144505 48 59 0.0 2.6 0.00 0.00 0.00 54 1025.9
20220123144000 48 59 0.0 3.5 0.00 0.00 0.00 55 1026.0
20220123143453 47 59 0.0 3.5 0.00 0.00 0.00 55 1026.1
20220123142948 47 54 0.0 1.7 0.00 0.00 0.00 57 1026.2
20220123142442 47 55 0.0 1.7 0.00 0.00 0.00 56 1026.2
20220123141937 47 57 0.0 0.9 0.00 0.00 0.00 57 1026.2
20220123141429 47 57 0.0 3.5 0.00 0.00 0.00 58 1026.2
20220123140924 47 57 0.0 3.5 0.00 0.00 0.00 59 1026.1
20220123140417 47 56 0.0 2.6 0.00 0.00 0.00 59 1026.1
20220123135911 47 57 0.0 2.6 0.00 0.00 0.00 59 1026.2
20220123135405 47 52 0.0 0.9 0.00 0.00 0.00 58 1026.3
20220123134900 47 52 0.0 0.9 0.00 0.00 0.00 59 1026.5
20220123134354 47 52 0.0 0.0 0.00 0.00 0.00 59 1026.5
20220123133848 47 52 0.0 0.0 0.00 0.00 0.00 59 1026.4
20220123133342 47 52 0.0 0.0 0.00 0.00 0.00 59 1026.4
20220123132837 47 52 0.0 0.0 0.00 0.00 0.00 59 1026.3
20220123132330 47 52 0.0 0.0 0.00 0.00 0.00 59 1026.2
20220123131824 47 52 0.0 0.0 0.00 0.00 0.00 58 1026.3
20220123131318 47 52 0.0 0.0 0.00 0.00 0.00 58 1026.3
20220123130812 47 52 0.0 0.0 0.00 0.00 0.00 59 1026.2
20220123130310 47 52 0.0 0.0 0.00 0.00 0.00 59 1026.2
20220123125800 47 52 0.0 0.0 0.00 0.00 0.00 59 1026.2
20220123125254 47 52 0.0 1.7 0.00 0.00 0.00 59 1026.1
20220123124748 47 52 0.9 3.5 0.00 0.00 0.00 60 1025.9
20220123124242 47 50 0.9 3.5 0.00 0.00 0.00 61 1025.8
20220123123735 46 57 0.0 2.6 0.00 0.00 0.00 61 1025.8
20220123123229 47 59 0.0 1.7 0.00 0.00 0.00 61 1026.0
20220123122725 47 59 0.0 0.9 0.00 0.00 0.00 61 1026.1
20220123122217 47 59 0.0 0.0 0.00 0.00 0.00 61 1026.1
20220123121712 47 59 0.0 0.0 0.00 0.00 0.00 62 1026.1
20220123121206 47 59 0.0 0.0 0.00 0.00 0.00 63 1026.1
20220123120700 47 59 0.0 0.0 0.00 0.00 0.00 63 1026.1
20220123120154 46 59 0.0 0.0 0.00 0.00 0.00 63 1026.0
20220123115647 47 59 0.0 0.0 0.00 0.00 0.00 64 1026.2
20220123115141 47 59 0.0 0.0 0.00 0.00 0.00 63 1026.2
20220123114635 47 59 0.0 0.0 0.00 0.00 0.00 61 1026.4
20220123114131 47 59 0.0 0.0 0.00 0.00 0.00 62 1026.5
20220123113624 47 59 0.0 0.0 0.00 0.00 0.00 62 1026.5
20220123113119 47 59 0.0 0.0 0.00 0.00 0.00 63 1026.5
20220123112613 47 59 0.0 0.0 0.00 0.00 0.00 62 1026.6